Location: Newark
(36.1358°N, 115.1208°W)
Time: 13:37:38
(UTC+00:00)

S-56A Canister/Altair - All Passes

Search period start: 17 February 2020 00:00
Search period end: 27 February 2020 00:00
Orbit: 633 x 2499 km, 38.9° (Epoch: 17 February)

Date Brightness Start Highest point End Pass type
(mag) Time Alt. Az. Time Alt. Az. Time Alt. Az.
17 Feb - 00:40:04 10° WNW 00:53:12 89° SSW 01:01:51 10° ESE daylight
17 Feb - 02:47:59 10° WNW 02:57:35 40° SW 03:04:09 10° SSE visible
17 Feb - 17:47:40 10° SSW 18:00:06 37° SE 18:12:48 10° ENE daylight
17 Feb - 19:50:56 10° SW 20:06:00 74° SSE 20:19:27 10° ENE daylight
17 Feb - 21:57:56 10° W 22:13:07 80° N 22:24:40 10° E daylight
18 Feb - 00:06:10 10° WNW 00:19:57 88° NNE 00:29:15 10° ESE daylight
18 Feb - 02:14:06 10° WNW 02:24:48 47° SW 02:31:59 10° SSE visible
18 Feb - 17:15:05 10° S 17:26:44 32° SE 17:39:02 10° E daylight
18 Feb - 19:17:36 10° SW 19:32:21 70° SSE 19:46:14 10° ENE daylight
18 Feb - 21:24:07 10° W 21:39:29 82° N 21:51:44 10° E daylight
18 Feb - 23:32:15 10° WNW 23:46:36 85° NNE 23:56:33 10° ESE daylight
19 Feb - 01:40:13 10° WNW 01:51:55 54° SW 01:59:44 10° SE visible
19 Feb - 03:50:46 10° W 03:54:34 13° SW 03:57:53 10° SSW visible
19 Feb - 16:42:43 10° S 16:53:27 28° SE 17:05:05 10° E daylight
19 Feb - 18:44:23 10° SW 18:58:43 65° SSE 19:12:55 10° ENE daylight
19 Feb - 20:50:24 10° WSW 21:05:47 84° NNW 21:18:42 10° ENE daylight
19 Feb - 22:58:21 10° W 23:13:09 83° N 23:23:48 10° E daylight
20 Feb - 01:06:19 10° WNW 01:18:56 61° SSW 01:27:22 10° SE daylight
20 Feb - 03:15:51 10° W 03:21:58 18° SW 03:26:54 10° SSW visible
20 Feb - 16:10:33 10° S 16:20:14 24° SE 16:30:55 10° E daylight
20 Feb - 18:11:19 10° SW 18:25:07 61° SSE 18:39:31 10° ENE daylight
20 Feb - 20:16:46 10° WSW 20:32:03 86° NNW 20:45:35 10° ENE daylight
20 Feb - 22:24:28 10° W 22:39:37 81° N 22:50:57 10° E daylight
21 Feb - 00:32:26 10° WNW 00:45:50 68° SSW 00:54:56 10° SE daylight
21 Feb - 02:41:24 10° W 02:49:20 23° SW 02:55:24 10° S visible
21 Feb - 15:38:40 10° SSE 15:47:05 20° SE 15:56:28 10° E daylight
21 Feb - 17:38:22 10° SW 17:51:35 56° SE 18:05:59 10° ENE daylight
21 Feb - 19:43:15 10° WSW 19:58:18 89° NNW 20:12:22 10° ENE daylight
21 Feb - 21:50:39 10° W 22:05:59 80° N 22:18:01 10° E daylight
21 Feb - 23:58:32 10° WNW 00:12:36 74° SSW 00:22:23 10° SE daylight
22 Feb - 02:07:09 10° W 02:16:36 28° SW 02:23:37 10° S visible
22 Feb - 15:07:12 10° SSE 15:14:02 16° SE 15:21:36 10° E daylight
22 Feb - 17:05:33 10° SSW 17:18:06 51° SE 17:32:21 10° ENE daylight
22 Feb - 19:09:50 10° WSW 19:24:33 88° SSE 19:39:05 10° ENE daylight
22 Feb - 21:16:53 10° W 21:32:17 80° N 21:45:00 10° E daylight
22 Feb - 23:24:40 10° WNW 23:39:17 79° SSW 23:49:45 10° ESE daylight
23 Feb - 01:33:00 10° WNW 01:43:46 34° SW 01:51:38 10° SSE visible
23 Feb - 14:36:31 10° SE 14:41:03 13° ESE 14:45:56 10° ESE daylight
23 Feb - 16:32:54 10° SSW 16:44:43 46° SE 16:58:36 10° ENE daylight
23 Feb - 18:36:33 10° WSW 18:50:48 84° SSE 19:05:41 10° ENE daylight
23 Feb - 20:43:12 10° W 20:58:32 80° N 21:11:52 10° E daylight
23 Feb - 22:50:49 10° WNW 23:05:51 83° SSW 23:17:01 10° ESE daylight
24 Feb - 00:58:55 10° WNW 01:10:50 40° SW 01:19:29 10° SSE daylight
24 Feb - 16:00:23 10° SSW 16:11:24 40° SE 16:24:44 10° ENE daylight
24 Feb - 18:03:23 10° WSW 18:17:05 80° SSE 18:32:12 10° ENE daylight
24 Feb - 20:09:35 10° W 20:24:44 80° N 20:38:40 10° E daylight
24 Feb - 22:17:02 10° WNW 22:32:19 87° SSW 22:44:10 10° ESE daylight
25 Feb - 00:24:54 10° WNW 00:37:49 46° SW 00:47:12 10° SSE daylight
25 Feb - 02:38:29 10° WSW 02:40:36 11° WSW 02:42:35 10° SW visible
25 Feb - 15:28:02 10° SSW 15:38:12 35° SE 15:50:45 10° ENE daylight
25 Feb - 17:30:20 10° SW 17:43:27 76° SSE 17:58:38 10° ENE daylight
25 Feb - 19:36:05 10° W 19:50:54 81° N 20:05:21 10° E daylight
25 Feb - 21:43:18 10° WNW 21:58:42 89° NNE 22:11:14 10° ESE daylight
25 Feb - 23:50:57 10° WNW 00:04:40 52° SW 00:14:48 10° SE daylight
26 Feb - 02:02:04 10° W 02:07:52 15° WSW 02:12:52 10° SSW visible
26 Feb - 14:55:50 10° S 15:05:05 30° SE 15:16:37 10° ENE daylight
26 Feb - 16:57:25 10° SW 17:09:52 71° SSE 17:25:00 10° ENE daylight
26 Feb - 19:02:41 10° W 19:17:05 82° N 19:31:57 10° E daylight
26 Feb - 21:09:37 10° WNW 21:25:00 87° NNE 21:38:11 10° ESE daylight
26 Feb - 23:17:04 10° WNW 23:31:24 58° SW 23:42:17 10° SE daylight
